Home   Weather   St. Paul   Past weeks
Flag for USA

Past Weather in St. Paul, Minnesota, USA — Yesterday and Last 2 Weeks

Now
63 °F

Sunny.


Feels Like: 63 °F
Forecast: 72 / 48 °F
Wind: 9 mph from Northwest

Location: St. Paul Downtown Holman Field

Current Time: May 25, 2019 at 8:55:32 pm

Latest Report: May 25, 2019 at 7:53 pm


Visibility: 10 mi

Pressure: 29.95 "Hg

Humidity: 54%

Dew Point: 46 °F

Location of St. PaulLocation

Past Weather in St. Paul — Graph

°F

St. Paul Temperature Yesterday

Maximum temperature yesterday: 71 °F (at 6:53 pm)
Minimum temperature yesterday: 51 °F (at 12:53 am)
Average temperature yesterday: 58 °F

High & Low Weather Summary for the Past Weeks

 TemperatureHumidityPressure
High80 °F (May 16, 11:53 am)97% (May 15, 4:53 am)30.18 "Hg (May 15, 4:53 am)
Low35 °F (May 20, 5:53 am)23% (May 15, 4:53 pm)29.51 "Hg (May 22, 10:53 am)
Average55 °F68%29.87 "Hg
* Reported May 10 6:53 pm — May 25 6:53 pm, St. Paul. Weather by CustomWeather, © 2019

Note: Actual official high and low records may vary slightly from our data, if they occured in-between our weather recording intervals... More about our weather records

Advertising

St. Paul Weather History for the Previous 24 Hours

Scroll right to see more
 ConditionsComfort  
Time TempWeatherWind HumidityBarometerVisibility
6:53 pm
Sat, May 25
65 °FPartly sunny.12 mph49%29.94 "Hg10 mi
5:53 pm65 °FOvercast.16 mph49%29.93 "Hg10 mi
4:53 pm67 °FOvercast.13 mph49%29.92 "Hg10 mi
3:53 pm68 °FPartly sunny.15 mph47%29.90 "Hg10 mi
2:53 pm67 °FPartly sunny.16 mph51%29.90 "Hg10 mi
1:53 pm66 °FPartly sunny.17 mph54%29.88 "Hg10 mi
12:53 pm68 °FPartly sunny.18 mph53%29.86 "Hg10 mi
11:53 am65 °FPassing clouds.15 mph59%29.85 "Hg10 mi
10:53 am65 °FSunny.15 mph56%29.83 "Hg10 mi
9:53 am64 °FSunny.13 mph58%29.82 "Hg10 mi
8:53 am62 °FSunny.14 mph58%29.80 "Hg10 mi
7:53 am60 °FSunny.15 mph62%29.78 "Hg10 mi
6:53 am59 °FSunny.14 mph69%29.76 "Hg10 mi
5:53 am60 °FSunny.12 mph75%29.73 "Hg10 mi
4:53 am62 °FClear.12 mph73%29.71 "Hg10 mi
3:53 am64 °FClear.12 mph70%29.70 "Hg10 mi
2:53 am59 °FClear.8 mph87%29.70 "Hg10 mi
1:53 am59 °FClear.7 mph87%29.70 "Hg10 mi
12:53 am58 °FClear.3 mph93%29.72 "Hg10 mi
11:53 pm
Fri, May 24
58 °FClear.10 mph93%29.73 "Hg10 mi
10:53 pm57 °FFog.6 mph96%29.74 "Hg6 mi
9:53 pm59 °FClear.3 mph96%29.74 "Hg10 mi
8:53 pm66 °FClear.6 mph81%29.75 "Hg10 mi
Weather by CustomWeather, © 2019

See weather overview